Location: Songkhla
(7.2000°N, 100.6000°E)
Time: 20:55:01
(UTC+07:00)

Resurs 01 Rocket - Pass Details

Date: 16 April 2026
Orbit: 626 x 636 km, 97.7° (Epoch: 20 May)

Event Time Altitude Azimuth Distance (km) Brightness Sun altitude
Exits shadow 19:28:25 - 166° (SSE) 2,573 4.5 -16.0°
Reaches altitude 10° 19:29:47 10° 165° (SSE) 2,011 3.9 -16.3°
Maximum altitude 19:34:10 79° 78° (ENE) 645 1.5 -17.4°
Drops below altitude 10° 19:38:31 10° 352° (N) 2,002 4.4 -18.4°
Sets 19:40:42 0° 351° (N) 2,906 5.3 -19.0°
